TimeCDT,TemperatureF,Dew PointF,Humidity,Sea Level PressureIn,VisibilityMPH,Wind Direction,Wind SpeedMPH,Gust SpeedMPH,PrecipitationIn,Events,Conditions,WindDirDegrees,DateUTC
12:52 AM,50.0,41.0,71,30.11,10.0,NNW,8.1,-,N/A,,Clear,340,2013-05-12 05:52:00
1:52 AM,48.0,39.9,74,30.12,10.0,NNW,6.9,-,N/A,,Clear,340,2013-05-12 06:52:00
2:52 AM,46.9,37.9,71,30.12,10.0,NNW,4.6,-,N/A,,Clear,340,2013-05-12 07:52:00
3:52 AM,46.9,37.0,68,30.12,10.0,NW,4.6,-,N/A,,Clear,320,2013-05-12 08:52:00
4:52 AM,45.0,37.0,74,30.13,10.0,WNW,4.6,-,N/A,,Clear,300,2013-05-12 09:52:00
5:52 AM,44.1,37.9,79,30.15,10.0,WNW,4.6,-,N/A,,Clear,290,2013-05-12 10:52:00
6:52 AM,46.0,39.9,79,30.16,10.0,WNW,4.6,-,N/A,,Clear,300,2013-05-12 11:52:00
7:52 AM,51.1,37.9,61,30.17,10.0,NNW,8.1,-,N/A,,Clear,330,2013-05-12 12:52:00
8:52 AM,54.0,37.9,55,30.19,10.0,NNW,8.1,-,N/A,,Clear,330,2013-05-12 13:52:00
9:52 AM,55.9,27.0,33,30.19,10.0,North,10.4,20.7,N/A,,Clear,360,2013-05-12 14:52:00
10:52 AM,57.0,32.0,39,30.20,10.0,North,6.9,-,N/A,,Clear,350,2013-05-12 15:52:00
11:52 AM,59.0,33.1,38,30.19,10.0,WNW,11.5,-,N/A,,Clear,290,2013-05-12 16:52:00
12:52 PM,59.0,34.0,39,30.18,10.0,NW,8.1,-,N/A,,Clear,320,2013-05-12 17:52:00
1:52 PM,61.0,33.1,35,30.17,10.0,NNW,15.0,19.6,N/A,,Clear,330,2013-05-12 18:52:00
2:52 PM,62.1,35.1,37,30.16,10.0,North,15.0,-,N/A,,Clear,350,2013-05-12 19:52:00
3:52 PM,61.0,33.1,35,30.15,10.0,WNW,8.1,18.4,N/A,,Clear,300,2013-05-12 20:52:00
4:52 PM,62.1,32.0,32,30.16,10.0,WNW,9.2,-,N/A,,Clear,290,2013-05-12 21:52:00
5:52 PM,61.0,33.1,35,30.15,10.0,NNW,10.4,-,N/A,,Clear,340,2013-05-12 22:52:00
6:52 PM,59.0,35.1,41,30.15,10.0,NNW,5.8,-,N/A,,Partly Cloudy,330,2013-05-12 23:52:00
7:52 PM,55.0,35.1,47,30.15,10.0,NNW,3.5,-,N/A,,Clear,330,2013-05-13 00:52:00
8:52 PM,54.0,37.0,53,30.17,10.0,Calm,Calm,-,N/A,,Clear,0,2013-05-13 01:52:00
9:52 PM,51.1,39.0,63,30.18,10.0,Calm,Calm,-,N/A,,Clear,0,2013-05-13 02:52:00
10:52 PM,46.9,41.0,80,30.18,10.0,Calm,Calm,-,N/A,,Clear,0,2013-05-13 03:52:00
11:52 PM,46.9,43.0,86,30.19,10.0,Calm,Calm,-,N/A,,Clear,0,2013-05-13 04:52:00